| time (UTC) | temp F | wind direction | speed MPH | gust MPH | rain 1hr in | rain 24hr in | rain mn in | humidity % | barometer mb |
| 20260504223022 | 76 | 144 | 3.0 | 9.0 | 0.00 | 0.00 | 0.00 | 74 | 1013.1 |
| 20260504221509 | 76 | 139 | 5.0 | 10.0 | 0.00 | 0.00 | 0.00 | 75 | 1013.3 |
| 20260504220015 | 76 | 150 | 5.0 | 11.0 | 0.00 | 0.00 | 0.00 | 74 | 1013.3 |
| 20260504214507 | 77 | 137 | 5.0 | 12.0 | 0.00 | 0.00 | 0.00 | 73 | 1013.5 |
| 20260504213019 | 77 | 146 | 5.0 | 12.0 | 0.00 | 0.00 | 0.00 | 71 | 1013.5 |
| 20260504211506 | 77 | 135 | 3.0 | 13.0 | 0.00 | 0.00 | 0.00 | 72 | 1013.6 |
| 20260504210003 | 77 | 130 | 5.0 | 12.0 | 0.00 | 0.00 | 0.00 | 71 | 1013.9 |
| 20260504204503 | 78 | 136 | 5.0 | 11.0 | 0.00 | 0.00 | 0.00 | 69 | 1014.2 |
| 20260504203111 | 78 | 190 | 3.0 | 11.0 | 0.00 | 0.00 | 0.00 | 70 | 1014.2 |
| 20260504201601 | 79 | 163 | 5.0 | 10.0 | 0.00 | 0.00 | 0.00 | 69 | 1014.4 |
| 20260504200118 | 79 | 155 | 4.0 | 11.0 | 0.00 | 0.00 | 0.00 | 68 | 1014.6 |
| 20260504194601 | 79 | 152 | 4.0 | 11.0 | 0.00 | 0.00 | 0.00 | 67 | 1014.7 |
| 20260504193055 | 78 | 134 | 5.0 | 10.0 | 0.00 | 0.00 | 0.00 | 68 | 1015.0 |
| 20260504191557 | 78 | 169 | 4.0 | 13.0 | 0.00 | 0.00 | 0.00 | 67 | 1015.2 |
| 20260504190051 | 78 | 148 | 4.0 | 12.0 | 0.00 | 0.00 | 0.00 | 66 | 1015.3 |
| 20260504184550 | 78 | 163 | 6.0 | 13.0 | 0.00 | 0.00 | 0.00 | 66 | 1015.2 |
| 20260504183049 | 78 | 175 | 3.0 | 10.0 | 0.00 | 0.00 | 0.00 | 66 | 1015.3 |
| 20260504181547 | 78 | 182 | 5.0 | 13.0 | 0.00 | 0.00 | 0.00 | 66 | 1015.7 |
| 20260504180043 | 78 | 159 | 6.0 | 14.0 | 0.00 | 0.00 | 0.00 | 67 | 1015.8 |
| 20260504174543 | 77 | 136 | 5.0 | 11.0 | 0.00 | 0.00 | 0.00 | 67 | 1015.8 |
| 20260504173040 | 77 | 212 | 5.0 | 10.0 | 0.00 | 0.00 | 0.00 | 67 | 1016.1 |
| 20260504171545 | 77 | 153 | 6.0 | 10.0 | 0.00 | 0.00 | 0.00 | 67 | 1016.2 |
| 20260504081516 | 65 | 161 | 0.0 | 3.0 | 0.00 | 0.00 | 0.00 | 74 | 1017.4 |
| 20260504044601 | 66 | 165 | 2.0 | 6.0 | 0.00 | 0.00 | 0.00 | 71 | 1019.4 |
| 20260504043056 | 66 | 165 | 2.0 | 4.0 | 0.00 | 0.00 | 0.00 | 70 | 1019.6 |
| 20260504041553 | 67 | 166 | 1.0 | 5.0 | 0.00 | 0.00 | 0.00 | 70 | 1019.5 |
| 20260504040104 | 67 | 166 | 1.0 | 5.0 | 0.00 | 0.00 | 0.00 | 68 | 1019.5 |
| 20260504034611 | 67 | 166 | 1.0 | 2.0 | 0.00 | 0.00 | 0.00 | 68 | 1019.6 |
| 20260504033049 | 68 | 166 | 1.0 | 6.0 | 0.00 | 0.00 | 0.00 | 66 | 1019.6 |
| 20260504031549 | 68 | 168 | 1.0 | 4.0 | 0.00 | 0.00 | 0.00 | 65 | 1019.3 |
| 20260504030108 | 68 | 168 | 0.0 | 5.0 | 0.00 | 0.00 | 0.00 | 65 | 1019.4 |
| 20260504024554 | 68 | 169 | 1.0 | 6.0 | 0.00 | 0.00 | 0.00 | 66 | 1019.5 |
| 20260504023047 | 69 | 169 | 1.0 | 4.0 | 0.00 | 0.00 | 0.00 | 68 | 1019.4 |
| 20260504021550 | 69 | 169 | 3.0 | 5.0 | 0.00 | 0.00 | 0.00 | 64 | 1019.5 |
| 20260504020045 | 69 | 166 | 3.0 | 6.0 | 0.00 | 0.00 | 0.00 | 63 | 1019.4 |
| 20260504014545 | 70 | 165 | 3.0 | 7.0 | 0.00 | 0.00 | 0.00 | 63 | 1019.4 |
| 20260504013050 | 70 | 171 | 3.0 | 5.0 | 0.00 | 0.00 | 0.00 | 63 | 1019.5 |
| 20260504011544 | 71 | 174 | 3.0 | 6.0 | 0.00 | 0.00 | 0.00 | 61 | 1019.3 |
| 20260504010043 | 71 | 156 | 1.0 | 6.0 | 0.00 | 0.00 | 0.00 | 62 | 1019.3 |
| 20260504004543 | 72 | 171 | 2.0 | 6.0 | 0.00 | 0.00 | 0.00 | 59 | 1019.2 |
| 20260504003042 | 73 | 150 | 4.0 | 8.0 | 0.00 | 0.00 | 0.00 | 56 | 1019.2 |
| 20260504001557 | 73 | 150 | 3.0 | 8.0 | 0.00 | 0.00 | 0.00 | 55 | 1019.2 |
| 20260504000040 | 74 | 177 | 3.0 | 7.0 | 0.00 | 0.00 | 0.00 | 56 | 1019.1 |
| 20260503234538 | 74 | 166 | 5.0 | 9.0 | 0.00 | 0.00 | 0.00 | 54 | 1019.4 |
| 20260503233039 | 75 | 131 | 5.0 | 9.0 | 0.00 | 0.00 | 0.00 | 51 | 1019.6 |
| 20260503231536 | 76 | 162 | 4.0 | 7.0 | 0.00 | 0.00 | 0.00 | 52 | 1019.6 |
| 20260503230040 | 76 | 180 | 5.0 | 10.0 | 0.00 | 0.00 | 0.00 | 51 | 1019.7 |
| 20260503224533 | 76 | 153 | 4.0 | 11.0 | 0.00 | 0.00 | 0.00 | 48 | 1019.7 |